Rbgn^[z[y[W
メイン
   新天体発見情報
     Comet P/2023 V6 (PANSTARRS)
投稿するにはまず登録を

フラット表示 前のトピック | 次のトピック
投稿者 スレッド
佐藤裕久
投稿日時: 2023-11-28 23:49
モデレータ
登録日: 2005-6-12
居住地: 日本
投稿: 2669
オンライン
Comet P/2023 V6 (PANSTARRS)

R. Weryk (西オンタリオ大学,物理および天文学科)の通報によると、11月8日、Haleakalaにある
Pan-STARRS1 1.8-m Ritchey-Chretien反射望遠鏡で得た画像から彗星を発見した。
4枚の45-秒のw-バンドサーベイ画像では、約1".5のシーイングで、2".2 (半値全幅:FWHM)の頭部
が見えるが尾はない。
10月22.4日(21.6-21.7等)に、HaleakalaのPan-STARRS2 1.8-m Ritchey-Chretien反射望遠鏡で観測
された発見前の観測は、その後小惑星センターの"isolated tracklet file" "で確認された。
追加のPan-STARRS1の発見前の画像は、その後、10月16.5日(20.9等)、10月25日(21.0等)、11月4日
(20.2-21.3等)に遡っることがわかった。
小惑星センターのPCCP webpageに公表後、L. Buzzi (Varese, イタリアは、11月11.9日, 30-秒露出
74枚のスタック, 0.84-m f/3.5 反射望遠鏡, 観測はG. Galliと彼、測定はBuzzi、GalliとA. Aletti: 
やや拡散した5"のコマが見え、おそらく南西に向かって伸びている。11月13.1日. 30-秒露出180枚の
スタックでは、中程度に集光した6"のコマ(20.7等)が見え、p.a. 約255°に5"伸びている)は彗星状と
観測された。

彗星機能の報告は次のとおり、

OC   Date        Reporter           Coma    Tail    PA          Exposures
W62  2023-11-13  J. Maikner        10"                          130x60s
204  2023-11-13  L. Buzzi           6"        5"    255         180x30s

発見位置は次のとおり、

     2023 UT             R.A. (2000) Decl.       Mag.
     Nov.  8.55523    4 16 33.12   +17 20 31.8   21.1
           8.56815    4 16 32.71   +17 20 30.4   21.4
           8.58106    4 16 32.31   +17 20 28.8   21.1
           8.59829    4 16 31.80   +17 20 27.0   21.1

MPCの楕円軌道要素、位置推算表は次のとおり、

Orbital elements:
    P/2023 V6 (PANSTARRS)                                                       
Epoch 2023 Sept. 13.0 TT = JDT 2460200.5                                        
T 2022 Dec. 28.05067 TT                                 Rudenko                 
q   4.3904510            (2000.0)            P               Q                  
n   0.07955030     Peri.  195.09480     +0.90529192     -0.42461720             
a   5.3543673      Node   190.05734     +0.39657091     +0.85503052             
e   0.1800243      Incl.    3.97805     +0.15224341     +0.29769624             
P  12.4                                                                         
From 20 observations 2023 Oct. 16-Nov. 13, mean residual 0".2.                  
                                                                                
Ephemeris:
Date    TT    R. A. (2000) Decl.     Delta      r    Elong.  Phase   m1
2023 10 16    04 25 36.6 +18 02 41   3.7500  4.5039   134.4     9.1  20.9
...
2023 10 31    04 20 35.3 +17 37 04   3.6251  4.5154   150.4     6.2  20.8
...
2023 11 08    04 16 50.2 +17 21 38   3.5814  4.5217   159.2     4.5  20.8
...
2023 11 14    04 13 40.0 +17 09 39   3.5605  4.5265   165.8     3.1  20.8
2023 11 15    04 13 07.0 +17 07 39   3.5581  4.5273   166.9     2.8  20.8
2023 11 16    04 12 33.7 +17 05 38   3.5559  4.5281   168.0     2.6  20.8
...
2023 11 22    04 09 09.1 +16 53 40   3.5494  4.5330   174.0     1.3  20.8
...
2023 11 30    04 04 32.1 +16 38 18   3.5580  4.5397   173.7     1.4  20.8
...
2023 12 15    03 56 27.4 +16 13 43   3.6269  4.5526   157.6     4.7  20.9

(MPEC 2023-V262、CBET 5317)

フラット表示 前のトピック | 次のトピック

題名 投稿者 日時
 » Comet P/2023 V6 (PANSTARRS) 佐藤裕久 2023-11-28 23:49

投稿するにはまず登録を
 
© 1999 Tsutomu Seki.